Tracking 28790 objects as of 18-Apr-2024
HD Live streaming from Space Station
objects crossing your sky now

GORIZONT 2

Track GORIZONT 2 now!
GORIZONT 2 is classified as:


NORAD ID: 11440
Int'l Code: 1979-062A
Perigee: 35,793.5 km
Apogee: 35,811.6 km
Inclination: 7.7 °
Period: 1,436.5 minutes
Semi major axis: 42173 km
RCS: 3.981 m2 (large)
Launch date: July 5, 1979
Source: Commonwealth of Independent States (former USSR) (CIS)
Launch site: TYURATAM MISSILE AND SPACE COMPLEX (TTMTR)
Your satellite tracking list
Your tracking list is empty




NASA's NSSDC Master Catalog

Two Line Element Set (TLE):
1 11440U 79062A   24109.11825133 -.00000039  00000-0  00000+0 0  9996
2 11440   7.6829 294.2074 0002139 341.9002  41.4906  1.00240357130084
Source of the keplerian elements: AFSPC